[[{"header":{"parameterUnit":"m.s-1","parameterCategory":1,"la1":30.2991,"la2":30.254,"lo1":-89.0895,"lo2":-89.0444,"dy":0.0017,"dx":0.0017,"nx":28,"ny":28,"refTime":"2023-10-18T09:00:00:Z","depth":0,"parameterNumber":2,"parameterNumberName":"U-component_of_WINDS"},"data":[0,0,0,0,0,0,0,0,0,0,0,0,0,0,0,0,0,0,0,0,0,0,0,0,0,0,0,0,0,0,0,0,0,0,0,0,0,0,0,0,0,0,0,0,0,0,0,0,0,0,0,0,0,0,0,0,0,0,2.2379,2.2379,0,2.2383,2.2383,2.2383,2.2339,2.2338,2.2336,2.2335,2.2338,2.2339,2.234,0,0,0,0,0,0,0,0,0,0,0,0,0,2.2332,2.2333,2.2379,2.2379,2.2379,2.2383,2.2383,2.2383,2.2339,2.2338,2.2336,2.2335,2.2337,2.2339,2.234,0,0,0,0,0,0,0,0,0,0,0,0,0,2.2346,2.2334,2.2379,2.2358,2.2356,2.2383,2.2383,2.2383,2.2339,2.2338,2.2336,2.2334,2.2337,2.2339,2.234,2.2388,0,0,2.2346,2.2347,0,0,0,0,0,0,0,0,2.2345,2.2348,2.2361,2.2359,2.2357,2.2358,2.2367,2.2384,2.234,2.2346,2.2335,2.2333,2.2346,2.2347,2.2352,2.2388,2.2388,2.2346,2.2347,2.2348,2.2348,0,0,0,0,0,0,0,2.2344,2.2347,2.238,2.2361,2.2359,2.2347,2.2347,2.237,2.2356,2.2345,2.2342,2.2343,2.2345,2.235,2.2351,2.2388,2.2346,2.2348,2.2349,2.2349,2.2462,2.2464,0,0,0,0,0,0,2.2346,2.2347,2.238,2.238,2.2347,2.235,2.235,2.236,2.2355,2.2353,2.2344,2.2341,2.2348,2.2349,2.2351,2.2405,2.2348,2.235,2.2351,2.246,2.2463,2.2465,0,0,0,0,0,0,2.2346,2.235,2.238,2.2363,2.2366,2.2353,2.2364,2.2361,2.2366,2.2355,2.2352,2.2353,2.2347,2.2349,2.2379,2.2405,2.235,2.2352,2.2458,2.2461,2.2464,2.2514,0,0,0,0,0,0,2.2344,2.235,2.2368,2.2364,2.2367,2.2408,2.2366,2.2362,2.2369,2.2365,2.2362,2.236,2.2345,2.2376,2.2381,2.2406,2.2353,2.2456,2.246,2.2463,2.251,2.2519,2.2526,0,0,0,0,0,2.2343,2.2381,2.2369,2.2373,2.2389,2.2409,2.2411,2.2394,2.2372,2.2389,2.2382,2.236,2.2402,2.238,2.2384,2.2411,2.2454,2.2458,2.2463,2.2507,2.2517,2.2526,0,0,0,0,0,0,2.2388,2.238,2.2366,2.2405,2.2408,2.2402,2.2423,2.2406,2.2415,2.241,2.2389,2.2388,2.2422,2.242,2.2395,2.2456,2.2424,2.2429,2.2456,2.2465,2.2473,2.2472,2.2355,0,0,0,0,0,2.2403,2.242,2.2413,2.2447,2.245,2.2437,2.2445,2.2432,2.2434,2.2435,2.243,2.2433,2.2447,2.2456,2.2469,2.2511,2.2509,2.2531,2.2539,2.2545,2.2549,2.2571,2.258,2.2479,2.2479,2.2479,0,0,2.2432,2.243,2.2443,2.2456,2.2457,2.2476,2.2438,2.2459,2.2472,2.2438,2.2466,2.2463,2.2465,2.2501,2.2517,2.25,2.2577,2.2551,2.2556,2.2557,2.2576,2.2586,2.2594,2.2482,2.2482,2.2481,0,0,2.2495,2.2497,2.2525,2.2527,2.253,2.2521,2.2528,2.2525,2.2522,2.255,2.2525,2.2541,2.2565,2.2567,2.2571,2.2637,2.2617,2.2642,2.2682,2.2703,2.2711,2.2718,2.274,2.2748,2.2647,2.2647,2.2647,0,2.2532,2.2559,2.2542,2.2565,2.2571,2.2543,2.2571,2.2574,2.258,2.2585,2.2567,2.2597,2.2597,2.2632,2.2649,2.2654,2.266,2.2641,2.2711,2.2718,2.2724,2.2745,2.2753,2.265,2.265,2.2649,2.2649,0,2.2603,2.2622,2.2645,2.2652,2.2661,2.2687,2.2674,2.2685,2.2672,2.2665,2.2694,2.2693,2.2704,2.2712,2.2699,2.2746,2.2736,2.2715,2.2682,2.2737,2.2756,2.2764,2.2654,2.2653,2.2652,2.2652,0,0,2.2691,2.2691,2.2699,2.2702,2.2704,2.2718,2.2743,2.2755,2.2764,2.277,2.2789,2.2812,2.2793,2.2798,2.2785,2.2804,2.2855,2.2781,2.278,2.2793,2.2906,2.292,2.2929,2.2842,2.2844,2.2845,2.2905,0,2.2752,2.2793,2.278,2.2822,2.2839,2.2814,2.2835,2.2838,2.2833,2.2847,2.2841,2.2856,2.2831,2.2833,2.2851,2.2845,2.2877,2.2841,2.2859,2.286,2.2857,2.294,2.2954,2.3011,2.2913,2.2914,2.2915,0,2.2827,2.2837,2.2881,2.288,2.2886,2.2906,2.2916,2.293,2.2933,2.2928,2.2934,2.2918,2.2941,2.291,2.2942,2.2918,2.2925,2.2923,2.2925,2.2924,2.2889,2.2939,2.3029,2.3036,2.2927,2.2926,2.2925,0,2.2885,2.291,2.2939,2.2943,2.2943,2.2957,2.2958,2.2959,2.2967,2.2976,2.2981,2.2993,2.2998,2.3008,2.2994,2.2973,2.3028,2.2996,2.3023,2.3024,2.3034,2.3033,2.3124,2.3042,2.3042,2.3042,2.3042,0,2.2953,2.298,2.2965,2.2983,2.3013,2.2998,2.3028,2.3026,2.3028,2.3044,2.3024,2.304,2.3023,2.3037,2.3027,2.3054,2.3058,2.3054,2.305,2.3054,2.3054,2.3057,2.3051,2.3044,2.3043,2.3043,2.3043,0,2.3022,2.3013,2.3043,2.3042,2.3042,2.3064,2.3062,2.3079,2.3073,2.3094,2.3099,2.3089,2.3105,2.3094,2.311,2.3103,2.3139,2.3131,2.3137,2.3134,2.3162,2.3159,2.3255,2.3267,2.318,2.3181,2.3181,0,2.3064,2.3085,2.3086,2.3096,2.3098,2.3115,2.3123,2.3109,2.3119,2.3125,2.314,2.3155,2.3165,2.3192,2.3186,2.3198,2.3189,2.3223,2.3191,2.3194,2.3188,2.3186,2.3187,2.3228,2.3229,2.323,2.3231,0,2.3139,2.3135,2.3148,2.316,2.3171,2.318,2.3187,2.3196,2.3183,2.3194,2.3211,2.3219,2.3236,2.325,2.326,2.326,2.3243,2.3241,2.3248,2.3251,2.3253,2.3251,2.3153,2.3238,2.3238,2.3237,2.3237,2.3236,2.3195,2.3212,2.3216,2.3231,2.3236,2.3243,2.3258,2.3255,2.3269,2.3282,2.3273,2.3292,2.3296,2.3308,2.331,2.3325,2.3311,2.3321,2.3323,2.3325,2.3328,2.3253,2.3327,2.3327,2.3327,2.3326,2.3326,0,2.3268,2.3269,2.3284,2.3295,2.3308,2.3292,2.33,2.331,2.3328,2.3333,2.3344,2.3363,2.3378,2.3374,2.3386,2.3399,2.3391,2.3402,2.34,2.34,2.3341,2.3333,2.3408,2.3408,2.3408,2.3408,2.3408,2.3408,2.3307,2.3335,2.3331,2.3361,2.3362,2.3381,2.3387,2.3393,2.3397,2.342,2.3431,2.343,2.3431,2.3444,2.3456,2.3454,2.3459,2.3473,2.3468,2.3413,2.3404,2.3396,2.3389,2.3475,2.3475,2.3526,2.3526,2.3527]},{"header":{"parameterUnit":"m.s-1","parameterCategory":1,"la1":30.2991,"la2":30.254,"lo1":-89.0895,"lo2":-89.0444,"dy":0.0017,"dx":0.0017,"nx":28,"ny":28,"refTime":"2023-10-18T09:00:00:Z","depth":0,"parameterNumber":3,"parameterNumberName":"V-component_of_WINDS"},"data":[0,0,0,0,0,0,0,0,0,0,0,0,0,0,0,0,0,0,0,0,0,0,0,0,0,0,0,0,0,0,0,0,0,0,0,0,0,0,0,0,0,0,0,0,0,0,0,0,0,0,0,0,0,0,0,0,0,0,2.9516,2.9515,0,2.9452,2.9451,2.945,2.9395,2.9395,2.9394,2.9393,2.9324,2.9323,2.9321,0,0,0,0,0,0,0,0,0,0,0,0,0,2.9587,2.9586,2.9516,2.9515,2.9515,2.9452,2.9451,2.945,2.9395,2.9395,2.9394,2.9393,2.9324,2.9323,2.9321,0,0,0,0,0,0,0,0,0,0,0,0,0,2.9543,2.9586,2.9516,2.948,2.9476,2.9452,2.9451,2.945,2.9395,2.9395,2.9394,2.9393,2.9325,2.9323,2.9321,2.9327,0,0,2.9315,2.9314,0,0,0,0,0,0,0,0,2.9545,2.954,2.9486,2.9482,2.9478,2.9431,2.945,2.9409,2.9396,2.9426,2.9393,2.9392,2.936,2.9355,2.9345,2.9324,2.9321,2.9315,2.9314,2.9313,2.9312,0,0,0,0,0,0,0,2.9549,2.9543,2.9491,2.9485,2.948,2.9465,2.9458,2.9442,2.9399,2.9423,2.9419,2.9412,2.9357,2.9347,2.9343,2.932,2.9315,2.9313,2.9312,2.9311,2.9299,2.93,0,0,0,0,0,0,2.9558,2.9546,2.9493,2.9489,2.951,2.9465,2.9456,2.9447,2.9399,2.9391,2.9413,2.941,2.9351,2.9345,2.934,2.9344,2.9313,2.9311,2.931,2.9299,2.93,2.93,0,0,0,0,0,0,2.956,2.9554,2.9495,2.9516,2.9507,2.9464,2.9454,2.9446,2.9435,2.9391,2.9383,2.9411,2.935,2.9343,2.9331,2.934,2.931,2.9309,2.9298,2.9299,2.93,2.9351,0,0,0,0,0,0,2.9562,2.9555,2.9558,2.9517,2.9507,2.9489,2.9454,2.9445,2.9433,2.9428,2.9387,2.9379,2.9348,2.9334,2.9329,2.9337,2.9307,2.9296,2.9298,2.93,2.9348,2.9354,2.9359,0,0,0,0,0,2.9565,2.9574,2.9558,2.9552,2.951,2.9489,2.9483,2.9449,2.9434,2.9435,2.9407,2.938,2.934,2.9333,2.9327,2.9335,2.9296,2.9298,2.9299,2.9346,2.9353,2.9359,0,0,0,0,0,0,2.9617,2.9568,2.955,2.9547,2.9523,2.948,2.9482,2.9458,2.9437,2.9433,2.939,2.9381,2.9374,2.9353,2.9346,2.9338,2.9314,2.9315,2.9352,2.9358,2.9363,2.9368,2.9305,0,0,0,0,0,2.9628,2.9617,2.9574,2.9575,2.9564,2.9525,2.9515,2.9491,2.9464,2.9453,2.9423,2.9397,2.9378,2.9367,2.9347,2.9345,2.9334,2.9347,2.9352,2.9357,2.9358,2.9354,2.9359,2.9307,2.9307,2.9307,0,0,2.9651,2.9623,2.9618,2.9585,2.9564,2.9552,2.9517,2.9506,2.9496,2.9451,2.9438,2.9415,2.9383,2.9375,2.9371,2.9358,2.937,2.9359,2.9363,2.9362,2.9356,2.9361,2.9366,2.9308,2.9308,2.9307,0,0,2.9686,2.9665,2.9663,2.9642,2.961,2.9584,2.9584,2.9544,2.9528,2.9515,2.948,2.9467,2.9436,2.9414,2.9398,2.9424,2.9398,2.9419,2.9446,2.9443,2.9447,2.945,2.9459,2.9462,2.942,2.942,2.942,0,2.9719,2.9701,2.9665,2.9656,2.9642,2.9601,2.9598,2.9579,2.9542,2.9532,2.9519,2.9478,2.9453,2.944,2.9446,2.9435,2.9432,2.9424,2.9449,2.9452,2.9455,2.9462,2.9466,2.9423,2.9423,2.9422,2.9422,0,2.9741,2.9729,2.9731,2.9698,2.9683,2.9678,2.9639,2.9629,2.9606,2.958,2.9566,2.9535,2.9508,2.9503,2.9479,2.9485,2.9478,2.9458,2.9433,2.9463,2.9469,2.9472,2.9427,2.9426,2.9425,2.9424,0,0,2.9809,2.9755,2.9756,2.974,2.9701,2.969,2.9682,2.9656,2.9648,2.9623,2.9614,2.9588,2.9568,2.9551,2.9525,2.9522,2.9543,2.9501,2.9499,2.9509,2.9546,2.9562,2.9567,2.9526,2.9526,2.9526,2.9549,0,2.9838,2.9822,2.9789,2.9782,2.977,2.973,2.9722,2.9697,2.9672,2.9657,2.9629,2.9611,2.9587,2.9576,2.9571,2.9542,2.955,2.954,2.9515,2.9515,2.9525,2.957,2.9587,2.961,2.9551,2.9552,2.9552,0,2.987,2.9849,2.9841,2.9803,2.9796,2.979,2.9763,2.9749,2.9719,2.9701,2.9682,2.9653,2.9639,2.9617,2.9598,2.9591,2.9579,2.9563,2.9563,2.9559,2.9536,2.9567,2.9616,2.962,2.9556,2.9555,2.9555,0,2.9919,2.9889,2.988,2.9867,2.9822,2.9818,2.9799,2.9768,2.9754,2.973,2.9721,2.9695,2.9681,2.9661,2.9625,2.9613,2.9609,2.9584,2.9593,2.9594,2.9594,2.9595,2.9642,2.9587,2.9587,2.9587,2.9587,0,2.9955,2.9952,2.9902,2.9897,2.9891,2.9852,2.9848,2.9824,2.9797,2.9785,2.9748,2.9738,2.9691,2.9675,2.9646,2.9634,2.9627,2.9612,2.9604,2.9615,2.9617,2.9606,2.9604,2.9588,2.9588,2.9587,2.9587,0,3.001,2.9976,2.9964,2.9922,2.9911,2.9909,2.9872,2.9865,2.9838,2.9824,2.9818,2.9775,2.9754,2.9716,2.9683,2.9664,2.9657,2.9644,2.9668,2.9663,2.9674,2.9673,2.9716,2.9719,2.9663,2.9663,2.9664,0,3.0035,3.0032,2.999,2.998,2.9962,2.9947,2.9933,2.9894,2.988,2.9845,2.9841,2.9817,2.9796,2.9763,2.9728,2.9702,2.9688,2.9705,2.9684,2.9695,2.9688,2.9688,2.9687,2.971,2.9711,2.9711,2.9712,0,3.0084,3.0067,3.0049,3.0025,3.0009,2.9988,2.9965,2.9958,2.9914,2.99,2.9878,2.9862,2.9829,2.9805,2.9774,2.9752,2.9724,2.9719,2.9719,2.973,2.9744,2.9736,2.9681,2.9718,2.9717,2.9717,2.9716,2.9716,3.0124,3.0119,3.0088,3.0069,3.0047,3.0026,3.0017,2.9989,2.9971,2.9942,2.9919,2.9899,2.9866,2.9822,2.9802,2.9784,2.9771,2.9772,2.9772,2.9773,2.9777,2.9747,2.9778,2.9778,2.9778,2.9778,2.9777,0,3.017,3.0148,3.0131,3.01,3.0084,3.006,3.0033,3.0021,3.0004,2.9977,2.9957,2.9931,2.9907,2.987,2.9843,2.9836,2.9822,2.983,2.983,2.9825,2.979,2.9793,2.9841,2.9841,2.9841,2.9841,2.9841,2.9841,3.0192,3.0182,3.0161,3.014,3.0117,3.0098,3.0084,3.0064,3.0042,3.0015,2.9996,2.9972,2.994,2.991,2.9887,2.9876,2.9868,2.9879,2.9865,2.9833,2.9827,2.9822,2.9824,2.9878,2.9878,2.9901,2.9901,2.9901]}]]